Weatherford, Texas, United States (76085)
Lat: 32.76N, Lon: 97.8W
Wx Zone: TXZ117
Local Info
Past Weather Observations for Yesterday

NOTE: This archive is for the closest National Weather Service station to Weatherford. Information may differ from the station used for current weather conditions.

Click here for Long-term Archive

Time Weather Temperature Dewpoint Humidity Pressure Winds Precip Visibility
23:53
Partly Cloudy
77°F / 25°C 73°F / 23°C 89% 30.01 in
(1016 mb)
E 10.4 mph
(E 17 kph)
- 10SM
22:53
Clear
79°F / 26°C 73°F / 23°C 84% 30.01 in
(1016 mb)
SE 8.1 mph
(SE 13 kph)
- 10SM
21:53
Clear
79°F / 26°C 73°F / 23°C 84% 30.01 in
(1016 mb)
SE 8.1 mph
(SE 13 kph)
0.00 in
(0.00 mm)
10SM
20:53
Partly Cloudy
Thunder Storms
79°F / 26°C 73°F / 23°C 84% 29.95 in
(1014 mb)
SE 10.4 mph
(SE 17 kph)
0.00 in
(0.00 mm)
10SM
20:09
Partly Cloudy
Thunder Storms
81°F / 27°C 73°F / 23°C 79% 29.95 in
(1014 mb)
SE 6.9 mph
(SE 11 kph)
- 10SM
19:53
Partly Cloudy
81°F / 27°C 73°F / 23°C 79% 29.95 in
(1014 mb)
SE 6.9 mph
(SE 11 kph)
- 10SM
18:53
Clear
82°F / 28°C 72°F / 22°C 70% 29.92 in
(1013 mb)
ESE 6.9 mph
(ESE 11 kph)
- 10SM
17:53
Clear
88°F / 31°C 73°F / 23°C 62% 29.92 in
(1013 mb)
SE 9.2 mph
(SE 15 kph)
- 10SM
16:53
Clear
90°F / 32°C 72°F / 22°C 55% 29.92 in
(1013 mb)
SE 11.5 mph
(SE 19 kph)
- 10SM
15:53
Clear
88°F / 31°C 70°F / 21°C 55% 29.92 in
(1013 mb)
SSE 9.2 mph
(SSE 15 kph)
- 10SM
14:53
Clear
88°F / 31°C 70°F / 21°C 55% 29.92 in
(1013 mb)
S 10.4 mph
(S 17 kph)
- 10SM
13:53
Clear
86°F / 30°C 72°F / 22°C 62% 29.92 in
(1013 mb)
S 9.2 mph
(S 15 kph)
- 10SM
12:53
Clear
82°F / 28°C 72°F / 22°C 70% 29.95 in
(1014 mb)
S 9.2 mph
(S 15 kph)
- 10SM
11:53
Clear
81°F / 27°C 72°F / 22°C 74% 29.95 in
(1014 mb)
SSE 8.1 mph
(SSE 13 kph)
- 10SM
10:53
Partly Cloudy
79°F / 26°C 70°F / 21°C 74% 29.95 in
(1014 mb)
SSE 9.2 mph
(SSE 15 kph)
- 10SM
09:53
Clear
75°F / 24°C 68°F / 20°C 78% 29.95 in
(1014 mb)
SSE 10.4 mph
(SSE 17 kph)
- 10SM
08:53
Partly Cloudy
72°F / 22°C 66°F / 19°C 83% 29.95 in
(1014 mb)
SE 5.8 mph
(SE 9 kph)
- 10SM
08:38
Partly Cloudy
72°F / 22°C 66°F / 19°C 83% 29.95 in
(1014 mb)
SSE 5.8 mph
(SSE 9 kph)
- 10SM
07:53
Overcast
66°F / 19°C 64°F / 18°C 94% 29.95 in
(1014 mb)
Calm - 9SM
07:11
Overcast
Fog And Mist
66°F / 19°C 64°F / 18°C 94% 29.92 in
(1013 mb)
Calm - 4SM
07:02
Overcast
Fog And Mist
66°F / 19°C 64°F / 18°C 94% 29.92 in
(1013 mb)
Calm - 2 1/2SM
06:53
Overcast
Fog And Mist
64°F / 18°C 64°F / 18°C 100% 29.92 in
(1013 mb)
SE 4.6 mph
(SE 7 kph)
- 1 1/2SM
06:04
Overcast
Fog And Mist
64°F / 18°C 64°F / 18°C 100% 29.89 in
(1012 mb)
Calm - 1SM
05:53
Overcast
Fog And Mist
64°F / 18°C 64°F / 18°C 100% 29.89 in
(1012 mb)
SSE 10.4 mph
(SSE 17 kph)
- 3/4SM
05:36
Overcast
Fog And Mist
64°F / 18°C 64°F / 18°C 100% 29.86 in
(1011 mb)
SSE 11.5 mph
(SSE 19 kph)
- 1 3/4SM
05:12
Overcast
Fog And Mist
64°F / 18°C 64°F / 18°C 100% 29.86 in
(1011 mb)
SSE 12.7 mph
(SSE 20 kph)
- 2SM
04:53
Overcast
Fog And Mist
64°F / 18°C 64°F / 18°C 100% 29.83 in
(1010 mb)
SSE 11.5 mph
(SSE 19 kph)
- 3SM
04:44
Overcast
Fog And Mist
64°F / 18°C 64°F / 18°C 100% 29.83 in
(1010 mb)
SSE 8.1 mph
(SSE 13 kph)
- 2 1/2SM
03:53
Overcast
64°F / 18°C 64°F / 18°C 100% 29.83 in
(1010 mb)
SSE 9.2 mph
(SSE 15 kph)
- 7SM
02:53
Overcast
Fog And Mist
64°F / 18°C 64°F / 18°C 100% 29.8 in
(1009 mb)
SE 12.7 mph
(SE 20 kph)
- 5SM
02:46
Overcast
Fog And Mist
64°F / 18°C 64°F / 18°C 100% 29.8 in
(1009 mb)
SE 8.1 mph
(SE 13 kph)
- 2SM
02:33
Obscured
Fog
64°F / 18°C 63°F / 17°C 94% 29.8 in
(1009 mb)
SE 10.4 mph
(SE 17 kph)
- 1/2SM
02:22
Overcast
Fog And Mist
64°F / 18°C 63°F / 17°C 94% 29.8 in
(1009 mb)
SE 9.2 mph
(SE 15 kph)
- 1 1/2SM
02:00
Mostly Cloudy
63°F / 17°C 63°F / 17°C 100% 29.8 in
(1009 mb)
SE 5.8 mph
(SE 9 kph)
- 9SM
01:53
Partly Cloudy
63°F / 17°C 63°F / 17°C 100% 29.8 in
(1009 mb)
SE 5.8 mph
(SE 9 kph)
- 10SM
01:48
Partly Cloudy
63°F / 17°C 63°F / 17°C 100% 29.8 in
(1009 mb)
SE 8.1 mph
(SE 13 kph)
- 10SM
00:53
Clear
64°F / 18°C 63°F / 17°C 94% 29.8 in
(1009 mb)
SSE 8.1 mph
(SSE 13 kph)
- 10SM
Time Weather Temperature Dewpoint Humidity Pressure Winds Precip Visibility


Weather for websites

WeatherForYou.com, LLC is not responsible for any damages or problems caused by this service. Current weather conditions are obtained from the closest station including government and personal stations which may have varying degrees of accuracy. Weather forecasts are derived from the NOAA NDFD. Like all things, this site belongs to Jesus Christ... He just trusts us to maintain it. If you have any questions or comments email webmaster@weatherforyou.com

Copyright © 2016, WeatherForYou.com LLC. All rights reserved.